• Join FlightAware (Why Join?)
  • Login
  • US Flag 
12:35AM EST


 

Airport Tracker/Info


-or-


 

Live Flight TrackerFlight Track Log ✈ JBU265 ✈ 22-Apr-2013 ✈ KSMF - KLGB

Flight Track Log - Related Links

Times and Time Zones

All times are in EDT time to prevent confusion due to time zone crossing. See the JBU265 flight status page for this flight to view local times or setup timezone preferences in your user account.

Time Position Orientation Groundspeed Altitude Reporting Facility
EDT Latitude Longitude Course Direction KTS MPH feet Rate Location/Type
12:42AM 38.7167 -121.5833 76° East 153 176 1,100  Level Northern Cal TRACON
12:44AM 38.6661 -121.4728 120° Southeast 243 280 6,700 2,623 Climbing Oakland Center
12:45AM 38.2743 -121.2732 134° Southeast  Level Estimated
12:45AM 38.6247 -121.3961 125° Southeast 259 298 9,800  Level Oakland Center
12:46AM 38.1689 -121.1944 110° East  Level Estimated
12:46AM 38.5753 -121.3036 124° Southeast 319 367 11,300  Level Oakland Center
12:47AM 38.1988 -121.0436 76° East  Level FlightAware Approximate
12:47AM 38.5136 -121.1900 125° Southeast 377 434 12,300  Level Oakland Center
12:48AM 38.4397 -121.0567 125° Southeast 424 488 14,600 1,967 Climbing Oakland Center
12:49AM 38.3914 -120.9117 113° Southeast 450 518 16,300 1,672 Climbing Oakland Center
12:50AM 38.3544 -120.7558 107° East 459 528 18,000 2,164 Climbing Oakland Center
12:51AM 38.3158 -120.5942 107° East 474 545 20,700 3,273 Climbing Oakland Center
12:52AM 38.2811 -120.4458 107° East 442 509 24,600 3,372 Climbing Oakland Center
12:53AM 38.2492 -120.3075 106° East 410 472 27,500 1,820 Climbing Oakland Center
12:54AM 38.1794 -120.1897 127° Southeast 431 496 28,300 639 Climbing Oakland Center
12:55AM 38.0536 -120.1517 167° South 462 532 28,800 738 Climbing Oakland Center
12:56AM 37.9225 -120.1161 168° South 474 545 29,800 1,328 Climbing Oakland Center
12:57AM 37.7858 -120.0797 168° South 492 566 31,500 1,180 Climbing Oakland Center
12:58AM 37.6514 -120.0450 168° South 490 564 32,200 1,190 Climbing Oakland Center
12:59AM 37.4864 -120.0047 169° South 499 574 33,900 1,488 Climbing Oakland Center
01:00AM 37.3519 -119.9717 169° South 488 562 35,200 1,131 Climbing Oakland Center
01:01AM 37.2206 -119.9361 168° South 483 556 36,200 885 Climbing Oakland Center
01:02AM 37.0883 -119.9006 168° South 484 557 37,000 393 Climbing Oakland Center
01:03AM 36.9792 -119.8719 168° South 474 545 37,000  Level Oakland Center
01:04AM 36.8208 -119.8314 168° South 482 555 37,000 -50 Level Oakland Center
01:05AM 36.6917 -119.7939 167° South 479 551 36,900 -49 Descending Oakland Center
01:06AM 36.5617 -119.7611 169° South 475 547 36,900  Level Oakland Center
01:07AM 36.4317 -119.7267 168° South 478 550 36,900 49 Level Oakland Center
01:08AM 36.3000 -119.6931 168° South 481 554 37,000  Climbing Oakland Center
01:09AM 36.1703 -119.6592 168° South 476 548 36,900  Descending Oakland Center
01:10AM 36.0422 -119.6272 169° South 470 541 37,000  Climbing Oakland Center
01:11AM 35.9144 -119.6172 176° South 456 525 36,900 -49 Descending Oakland Center
01:12AM 35.7847 -119.6233 182° South 462 532 36,900 49 Level Oakland Center
01:13AM 35.6539 -119.6253 181° South 466 536 37,000 50 Climbing Oakland Center
01:14AM 35.5222 -119.6069 174° South 469 540 37,000  Level Oakland Center
01:15AM 35.3931 -119.5750 169° South 471 542 37,000 -49 Level Oakland Center
01:16AM 35.2758 -119.4986 152° Southeast 471 542 36,900 -50 Descending Oakland Center
01:17AM 35.1586 -119.4172 150° Southeast 479 551 36,900 50 Level Oakland Center
01:18AM 35.0408 -119.3403 152° Southeast 478 550 37,000 49 Climbing Oakland Center
01:20AM 34.9225 -119.2606 151° Southeast 482 555 37,000 -50 Level Oakland Center
01:21AM 34.8058 -119.1822 151° Southeast 479 551 36,900 -446 Descending Oakland Center
01:22AM 34.6881 -119.1036 151° Southeast 481 554 36,100 -1,895 Descending Oakland Center
01:23AM 34.5483 -119.0108 151° Southeast 481 554 32,700 -3,158 Descending Los Angeles Center
01:24AM 34.4286 -118.9314 151° Southeast 487 560 29,100 -4,131 Descending Los Angeles Center
01:25AM 34.3006 -118.8653 157° South 503 579 24,300 -4,131 Descending Los Angeles Center
01:26AM 34.1689 -118.8117 161° South 499 574 20,700 -3,738 Descending Los Angeles Center
01:27AM 34.0167 -118.7556 163° South 469 540 16,700 -3,246 Descending Los Angeles Center
01:28AM 33.8986 -118.7122 163° South 444 511 14,100 -1,328 Descending Los Angeles Center
01:29AM 33.7853 -118.6719 164° South 439 505 14,000 -344 Descending Los Angeles Center
01:30AM 33.6692 -118.6306 163° South 441 507 13,400 -1,574 Descending Los Angeles Center
01:31AM 33.5631 -118.5778 157° South 417 480 10,800 -1,721 Descending Los Angeles Center
01:32AM 33.5056 -118.4892 128° Southeast 364 419 9,900 -1,525 Descending Los Angeles Center
01:33AM 33.5236 -118.3928 77° East 314 361 7,700 -2,115 Descending Los Angeles Center
01:34AM 33.5483 -118.2800 75° East 301 346 5,600 -1,377 Descending Los Angeles Center
01:35AM 33.5672 -118.1922 75° East 288 331 4,900 -689 Descending Los Angeles Center
01:36AM 33.5831 -118.1178 76° East 255 293 4,200 -836 Descending Los Angeles Center
01:37AM 33.6236 -118.0689 45° Northeast 230 265 3,200 -1,129 Descending Los Angeles Center
01:37AM 33.6500 -118.0500 31° Northeast 215 247 2,600 -1,143 Descending Southern California TRACON
01:38AM 33.7000 -118.0167 29° Northeast 218 251 1,600 -500 Descending Southern California TRACON
01:39AM 33.7500 -118.0667 320° Northwest 197 227 1,600 -350 Level Southern California TRACON
01:40AM 33.7833 -118.1000 320° Northwest 165 190 900 -737 Descending Southern California TRACON
01:41AM 33.8000 -118.1333 301° West 141 162 200 -778 Descending Southern California TRACON